Home   Weather   Küssnacht   Past weeks

Flag for Switzerland Past Weather in Küssnacht, Schwyz, Switzerland — Yesterday and Last 2 Weeks

Now
55 °F

Cool.


Feels Like: 55 °F
Forecast: 41 / 58 °F
Wind: 3 mph from South

Location: Altdorf

Current Time: Sep 27, 2016 at 10:47:09 PM

Latest Report: Sep 27, 2016 at 10:00 PM


Visibility: N/A

Pressure: 30.38 "Hg

Humidity: 91%

Dew Point: 53 °F

Location of KüssnachtLocation

Past Weather in Küssnacht — Graph

°F

Küssnacht Temperature Yesterday

Maximum temperature yesterday: 69 °F (at 3:00 PM)
Minimum temperature yesterday: 50 °F (at 6:00 AM)
Average temperature yesterday: 59 °F

High & Low Weather Summary for the Past Weeks

 TemperatureHumidityPressure
High78 °F (Sep 14, 12:00 AM)100% (Sep 24, 7:00 AM)30.37 "Hg (Sep 24, 7:00 AM)
Low46 °F (Sep 25, 6:00 AM)30% (Sep 15, 12:00 AM)29.73 "Hg (Sep 15, 5:00 AM)
Average60 °F80%30.06 "Hg
* Reported Sep 12 9:00 PM — Sep 27 9:00 PM, Küssnacht, Weather by CustomWeather, © 2016

Note: Actual official high and low records may vary slightly from our data, if they occured in-between our weather recording intervals... More about our weather records

Advertising

Küssnacht Weather History for the Previous 24 Hours

Scroll right to see more
 ConditionsComfort  
Time TempWeatherWind HumidityBarometerVisibility
9:00 PM
Tue, Sep 27
58 °FCool.2 mph86%30.37 "HgN/A
8:00 PM58 °FPassing clouds.2 mph89%30.34 "Hg12 mi
7:00 PM60 °FCool.2 mph82%30.32 "HgN/A
6:00 PM65 °FMild.1 mph68%30.28 "HgN/A
5:00 PM66 °FScattered clouds.5 mph63%30.26 "Hg12 mi
4:00 PM68 °FMild.8 mph63%30.24 "HgN/A
3:00 PM67 °FMild.6 mph66%30.24 "HgN/A
2:00 PM66 °FPartly sunny.5 mph71%30.26 "Hg9 mi
1:00 PM65 °FMild.8 mph73%30.27 "HgN/A
12:00 PM64 °FMild.6 mph81%30.27 "HgN/A
11:00 AM60 °FCool.3 mph88%30.28 "HgN/A
10:00 AM60 °FCool.No wind89%30.28 "HgN/A
9:00 AM59 °FCool.2 mph95%30.27 "HgN/A
8:00 AM58 °FRain. Overcast.2 mph96%30.25 "Hg9 mi
7:00 AM58 °FCool.2 mph95%30.24 "HgN/A
6:00 AM57 °FCool.2 mph94%30.22 "HgN/A
5:00 AM57 °FOvercast.2 mph97%30.22 "Hg9 mi
4:00 AM57 °FCool.1 mph98%30.21 "HgN/A
3:00 AM58 °FCool.2 mph95%30.19 "HgN/A
2:00 AM57 °FPassing clouds.3 mph98%30.19 "Hg9 mi
1:00 AM57 °FCool.1 mph98%30.19 "HgN/A
12:00 AM59 °FCool.2 mph96%30.19 "HgN/A
11:00 PM
Mon, Sep 26
59 °FRain. Overcast.2 mph98%30.19 "Hg5 mi
10:00 PM61 °FCool.5 mph92%30.18 "HgN/A
Weather by CustomWeather, © 2016

See weather overviewHow to use our weather pages